TimeCDT,TemperatureF,Dew PointF,Humidity,Sea Level PressureIn,VisibilityMPH,Wind Direction,Wind SpeedMPH,Gust SpeedMPH,PrecipitationIn,Events,Conditions,WindDirDegrees,DateUTC
12:55 AM,64.9,44.1,47,29.27,10.0,SSE,15.0,19.6,N/A,,Clear,160,2013-04-30 05:55:00
1:55 AM,64.0,43.0,46,29.25,10.0,South,12.7,20.7,N/A,,Clear,170,2013-04-30 06:55:00
2:55 AM,57.9,44.1,60,29.30,10.0,WSW,8.1,-,N/A,,Clear,250,2013-04-30 07:55:00
3:25 AM,51.8,44.6,76,29.37,10.0,NW,31.1,41.4,N/A,,Clear,320,2013-04-30 08:25:00
3:55 AM,51.1,44.1,77,29.44,10.0,NW,26.5,44.9,N/A,,Clear,320,2013-04-30 08:55:00
4:55 AM,50.0,44.1,80,29.48,10.0,NW,23.0,34.5,N/A,,Clear,320,2013-04-30 09:55:00
5:55 AM,48.0,43.0,83,29.55,10.0,NW,12.7,-,N/A,,Clear,320,2013-04-30 10:55:00
6:55 AM,46.0,42.1,86,29.60,10.0,WNW,12.7,-,N/A,,Clear,300,2013-04-30 11:55:00
7:55 AM,50.0,43.0,77,29.62,10.0,WNW,16.1,-,N/A,,Clear,290,2013-04-30 12:55:00
8:55 AM,55.0,37.0,51,29.66,10.0,NW,28.8,34.5,N/A,,Clear,320,2013-04-30 13:55:00
9:55 AM,59.0,30.0,33,29.67,10.0,NW,23.0,29.9,N/A,,Clear,310,2013-04-30 14:55:00
10:55 AM,60.1,26.1,27,29.70,10.0,NW,26.5,34.5,N/A,,Clear,310,2013-04-30 15:55:00
11:55 AM,63.0,27.0,26,29.71,10.0,NW,24.2,38.0,N/A,,Clear,310,2013-04-30 16:55:00
12:55 PM,62.1,27.0,26,29.73,10.0,NW,20.7,27.6,N/A,,Clear,310,2013-04-30 17:55:00
1:55 PM,63.0,24.1,23,29.73,10.0,NW,21.9,26.5,N/A,,Clear,320,2013-04-30 18:55:00
2:55 PM,62.1,26.1,25,29.79,7.0,NW,16.1,26.5,N/A,,Clear,320,2013-04-30 19:55:00
3:55 PM,60.8,26.6,27,29.80,10.0,NW,16.1,-,N/A,,Mostly Cloudy,310,2013-04-30 20:55:00
4:55 PM,59.0,28.0,31,29.86,10.0,NW,13.8,-,N/A,,Overcast,320,2013-04-30 21:55:00
5:55 PM,57.9,28.9,33,29.90,10.0,NW,11.5,-,N/A,,Overcast,320,2013-04-30 22:55:00
6:55 PM,57.0,28.0,33,29.93,10.0,WNW,10.4,-,N/A,,Mostly Cloudy,300,2013-04-30 23:55:00
7:55 PM,55.9,27.0,33,29.95,10.0,WNW,6.9,-,N/A,,Overcast,290,2013-05-01 00:55:00
8:55 PM,55.0,28.0,35,29.96,10.0,North,10.4,-,N/A,,Overcast,350,2013-05-01 01:55:00
9:55 PM,52.0,28.9,41,30.02,10.0,North,12.7,-,N/A,,Overcast,350,2013-05-01 02:55:00
10:55 PM,50.0,28.9,44,30.04,10.0,NNW,12.7,-,N/A,,Overcast,340,2013-05-01 03:55:00
11:55 PM,46.9,28.9,50,30.06,10.0,NNW,16.1,-,N/A,,Overcast,340,2013-05-01 04:55:00